owner,sensor,date,latitude,longitude,sea_surface_height_above_sea_level,qcFlag 
COMPS,ioos:station:USF.COMPS:FHP:1,2017-04-01T05:18:00Z,28.1530,-82.8010,-9.994,1111122 
COMPS,ioos:station:USF.COMPS:FHP:1,2017-04-01T05:24:00Z,28.1530,-82.8010,-9.981,1111122 
COMPS,ioos:station:USF.COMPS:FHP:1,2017-04-01T05:30:00Z,28.1530,-82.8010,-9.967,1111122 
COMPS,ioos:station:USF.COMPS:FHP:1,2017-04-01T05:36:00Z,28.1530,-82.8010,-9.954,1111122 
COMPS,ioos:station:USF.COMPS:FHP:1,2017-04-01T05:42:00Z,28.1530,-82.8010,-9.937,1111122 
COMPS,ioos:station:USF.COMPS:FHP:1,2017-04-01T05:48:00Z,28.1530,-82.8010,-9.922,1111122 
COMPS,ioos:station:USF.COMPS:FHP:1,2017-04-01T05:54:00Z,28.1530,-82.8010,-9.905,1111122 
COMPS,ioos:station:USF.COMPS:FHP:1,2017-04-01T06:00:00Z,28.1530,-82.8010,-9.897,1111122 
COMPS,ioos:station:USF.COMPS:FHP:1,2017-04-01T06:06:00Z,28.1530,-82.8010,-9.881,1111122 
COMPS,ioos:station:USF.COMPS:FHP:1,2017-04-01T06:12:00Z,28.1530,-82.8010,-9.872,1111122 
COMPS,ioos:station:USF.COMPS:FHP:1,2017-04-01T06:18:00Z,28.1530,-82.8010,-9.856,1111122 
COMPS,ioos:station:USF.COMPS:FHP:1,2017-04-01T06:24:00Z,28.1530,-82.8010,-9.841,1111122 
COMPS,ioos:station:USF.COMPS:FHP:1,2017-04-01T06:30:00Z,28.1530,-82.8010,-9.827,1111122 
COMPS,ioos:station:USF.COMPS:FHP:1,2017-04-01T06:36:00Z,28.1530,-82.8010,-9.813,1111122 
COMPS,ioos:station:USF.COMPS:FHP:1,2017-04-01T06:42:00Z,28.1530,-82.8010,-9.806,1111122 
COMPS,ioos:station:USF.COMPS:FHP:1,2017-04-01T06:48:00Z,28.1530,-82.8010,-9.792,1111122 
COMPS,ioos:station:USF.COMPS:FHP:1,2017-04-01T06:54:00Z,28.1530,-82.8010,-9.785,1111122 
COMPS,ioos:station:USF.COMPS:FHP:1,2017-04-01T07:00:00Z,28.1530,-82.8010,-9.777,1111122 
COMPS,ioos:station:USF.COMPS:FHP:1,2017-04-01T07:06:00Z,28.1530,-82.8010,-9.773,1111122 
COMPS,ioos:station:USF.COMPS:FHP:1,2017-04-01T07:12:00Z,28.1530,-82.8010,-9.76,1111122 
COMPS,ioos:station:USF.COMPS:FHP:1,2017-04-01T07:18:00Z,28.1530,-82.8010,-9.757,1111122 
COMPS,ioos:station:USF.COMPS:FHP:1,2017-04-01T07:24:00Z,28.1530,-82.8010,-9.745,1111122 
COMPS,ioos:station:USF.COMPS:FHP:1,2017-04-01T07:30:00Z,28.1530,-82.8010,-9.743,1111122 
COMPS,ioos:station:USF.COMPS:FHP:1,2017-04-01T07:36:00Z,28.1530,-82.8010,-9.753,1111122 
COMPS,ioos:station:USF.COMPS:FHP:1,2017-04-01T07:42:00Z,28.1530,-82.8010,-9.741,1111122 
COMPS,ioos:station:USF.COMPS:FHP:1,2017-04-01T07:48:00Z,28.1530,-82.8010,-9.749,1111122 
COMPS,ioos:station:USF.COMPS:FHP:1,2017-04-01T07:54:00Z,28.1530,-82.8010,-9.757,1111122 
COMPS,ioos:station:USF.COMPS:FHP:1,2017-04-01T08:00:00Z,28.1530,-82.8010,-9.759,1111122 
COMPS,ioos:station:USF.COMPS:FHP:1,2017-04-01T08:06:00Z,28.1530,-82.8010,-9.759,1111122 
COMPS,ioos:station:USF.COMPS:FHP:1,2017-04-01T08:12:00Z,28.1530,-82.8010,-9.749,1111122 
COMPS,ioos:station:USF.COMPS:FHP:1,2017-04-01T08:18:00Z,28.1530,-82.8010,-9.754,1111122 
COMPS,ioos:station:USF.COMPS:FHP:1,2017-04-01T08:24:00Z,28.1530,-82.8010,-9.755,1111122 
COMPS,ioos:station:USF.COMPS:FHP:1,2017-04-01T08:30:00Z,28.1530,-82.8010,-9.759,1111122 
COMPS,ioos:station:USF.COMPS:FHP:1,2017-04-01T08:36:00Z,28.1530,-82.8010,-9.767,1111122 
COMPS,ioos:station:USF.COMPS:FHP:1,2017-04-01T08:42:00Z,28.1530,-82.8010,-9.766,1111122 
COMPS,ioos:station:USF.COMPS:FHP:1,2017-04-01T08:48:00Z,28.1530,-82.8010,-9.774,1111122 
COMPS,ioos:station:USF.COMPS:FHP:1,2017-04-01T08:54:00Z,28.1530,-82.8010,-9.777,1111122 
COMPS,ioos:station:USF.COMPS:FHP:1,2017-04-01T09:00:00Z,28.1530,-82.8010,-9.779,1111122 
COMPS,ioos:station:USF.COMPS:FHP:1,2017-04-01T09:06:00Z,28.1530,-82.8010,-9.787,1111122 
COMPS,ioos:station:USF.COMPS:FHP:1,2017-04-01T09:12:00Z,28.1530,-82.8010,-9.791,1111122 
COMPS,ioos:station:USF.COMPS:FHP:1,2017-04-01T09:18:00Z,28.1530,-82.8010,-9.797,1111122 
COMPS,ioos:station:USF.COMPS:FHP:1,2017-04-01T09:24:00Z,28.1530,-82.8010,-9.803,1111122 
COMPS,ioos:station:USF.COMPS:FHP:1,2017-04-01T09:30:00Z,28.1530,-82.8010,-9.809,1111122 
COMPS,ioos:station:USF.COMPS:FHP:1,2017-04-01T09:36:00Z,28.1530,-82.8010,-9.813,1111122 
COMPS,ioos:station:USF.COMPS:FHP:1,2017-04-01T09:42:00Z,28.1530,-82.8010,-9.827,1111122 
COMPS,ioos:station:USF.COMPS:FHP:1,2017-04-01T09:48:00Z,28.1530,-82.8010,-9.838,1111122 
COMPS,ioos:station:USF.COMPS:FHP:1,2017-04-01T09:54:00Z,28.1530,-82.8010,-9.845,1111122 
COMPS,ioos:station:USF.COMPS:FHP:1,2017-04-01T10:00:00Z,28.1530,-82.8010,-9.856,1111122 
COMPS,ioos:station:USF.COMPS:FHP:1,2017-04-01T10:06:00Z,28.1530,-82.8010,-9.868,1111122 
COMPS,ioos:station:USF.COMPS:FHP:1,2017-04-01T10:12:00Z,28.1530,-82.8010,-9.868,1111122 
COMPS,ioos:station:USF.COMPS:FHP:1,2017-04-01T10:18:00Z,28.1530,-82.8010,-9.875,1111122 
COMPS,ioos:station:USF.COMPS:FHP:1,2017-04-01T10:24:00Z,28.1530,-82.8010,-9.879,1111122 
COMPS,ioos:station:USF.COMPS:FHP:1,2017-04-01T10:30:00Z,28.1530,-82.8010,-9.892,1111122 
COMPS,ioos:station:USF.COMPS:FHP:1,2017-04-01T10:36:00Z,28.1530,-82.8010,-9.896,1111122 
COMPS,ioos:station:USF.COMPS:FHP:1,2017-04-01T10:42:00Z,28.1530,-82.8010,-9.909,1111122 
COMPS,ioos:station:USF.COMPS:FHP:1,2017-04-01T10:48:00Z,28.1530,-82.8010,-9.921,1111122 
COMPS,ioos:station:USF.COMPS:FHP:1,2017-04-01T10:54:00Z,28.1530,-82.8010,-9.934,1111122 
COMPS,ioos:station:USF.COMPS:FHP:1,2017-04-01T11:00:00Z,28.1530,-82.8010,-9.947,1111122 
COMPS,ioos:station:USF.COMPS:FHP:1,2017-04-01T11:06:00Z,28.1530,-82.8010,-9.956,1111122 
COMPS,ioos:station:USF.COMPS:FHP:1,2017-04-01T11:12:00Z,28.1530,-82.8010,-9.971,1111122 
COMPS,ioos:station:USF.COMPS:FHP:1,2017-04-01T11:18:00Z,28.1530,-82.8010,-9.979,1111122 
COMPS,ioos:station:USF.COMPS:FHP:1,2017-04-01T11:24:00Z,28.1530,-82.8010,-9.984,1111122 
COMPS,ioos:station:USF.COMPS:FHP:1,2017-04-01T11:30:00Z,28.1530,-82.8010,-9.998,1111122 
COMPS,ioos:station:USF.COMPS:FHP:1,2017-04-01T15:18:00Z,28.1530,-82.8010,-9.99,1111122 
COMPS,ioos:station:USF.COMPS:FHP:1,2017-04-01T15:24:00Z,28.1530,-82.8010,-9.977,1111122 
COMPS,ioos:station:USF.COMPS:FHP:1,2017-04-01T15:30:00Z,28.1530,-82.8010,-9.964,1111122 
COMPS,ioos:station:USF.COMPS:FHP:1,2017-04-01T15:36:00Z,28.1530,-82.8010,-9.953,1111122 
COMPS,ioos:station:USF.COMPS:FHP:1,2017-04-01T15:42:00Z,28.1530,-82.8010,-9.938,1111122 
COMPS,ioos:station:USF.COMPS:FHP:1,2017-04-01T15:48:00Z,28.1530,-82.8010,-9.926,1111122 
COMPS,ioos:station:USF.COMPS:FHP:1,2017-04-01T15:54:00Z,28.1530,-82.8010,-9.91,1111122 
COMPS,ioos:station:USF.COMPS:FHP:1,2017-04-01T16:00:00Z,28.1530,-82.8010,-9.893,1111122 
COMPS,ioos:station:USF.COMPS:FHP:1,2017-04-01T16:06:00Z,28.1530,-82.8010,-9.878,1111122 
COMPS,ioos:station:USF.COMPS:FHP:1,2017-04-01T16:12:00Z,28.1530,-82.8010,-9.863,1111122 
COMPS,ioos:station:USF.COMPS:FHP:1,2017-04-01T16:18:00Z,28.1530,-82.8010,-9.848,1111122 
COMPS,ioos:station:USF.COMPS:FHP:1,2017-04-01T16:24:00Z,28.1530,-82.8010,-9.835,1111122 
COMPS,ioos:station:USF.COMPS:FHP:1,2017-04-01T16:30:00Z,28.1530,-82.8010,-9.82,1111122 
COMPS,ioos:station:USF.COMPS:FHP:1,2017-04-01T16:36:00Z,28.1530,-82.8010,-9.807,1111122 
COMPS,ioos:station:USF.COMPS:FHP:1,2017-04-01T16:42:00Z,28.1530,-82.8010,-9.796,1111122 
COMPS,ioos:station:USF.COMPS:FHP:1,2017-04-01T16:48:00Z,28.1530,-82.8010,-9.781,1111122 
COMPS,ioos:station:USF.COMPS:FHP:1,2017-04-01T16:54:00Z,28.1530,-82.8010,-9.773,1111122 
COMPS,ioos:station:USF.COMPS:FHP:1,2017-04-01T17:00:00Z,28.1530,-82.8010,-9.758,1111122 
COMPS,ioos:station:USF.COMPS:FHP:1,2017-04-01T17:06:00Z,28.1530,-82.8010,-9.746,1111122 
COMPS,ioos:station:USF.COMPS:FHP:1,2017-04-01T17:12:00Z,28.1530,-82.8010,-9.733,1111122 
COMPS,ioos:station:USF.COMPS:FHP:1,2017-04-01T17:18:00Z,28.1530,-82.8010,-9.718,1111122 
COMPS,ioos:station:USF.COMPS:FHP:1,2017-04-01T17:24:00Z,28.1530,-82.8010,-9.709,1111122 
COMPS,ioos:station:USF.COMPS:FHP:1,2017-04-01T17:30:00Z,28.1530,-82.8010,-9.698,1111122 
COMPS,ioos:station:USF.COMPS:FHP:1,2017-04-01T17:36:00Z,28.1530,-82.8010,-9.688,1111122 
COMPS,ioos:station:USF.COMPS:FHP:1,2017-04-01T17:42:00Z,28.1530,-82.8010,-9.68,1111122 
COMPS,ioos:station:USF.COMPS:FHP:1,2017-04-01T17:48:00Z,28.1530,-82.8010,-9.66,1111122 
COMPS,ioos:station:USF.COMPS:FHP:1,2017-04-01T17:54:00Z,28.1530,-82.8010,-9.65,1111122 
COMPS,ioos:station:USF.COMPS:FHP:1,2017-04-01T18:00:00Z,28.1530,-82.8010,-9.638,1111122 
COMPS,ioos:station:USF.COMPS:FHP:1,2017-04-01T18:06:00Z,28.1530,-82.8010,-9.632,1111122 
COMPS,ioos:station:USF.COMPS:FHP:1,2017-04-01T18:12:00Z,28.1530,-82.8010,-9.626,1111122 
COMPS,ioos:station:USF.COMPS:FHP:1,2017-04-01T18:18:00Z,28.1530,-82.8010,-9.621,1111122 
COMPS,ioos:station:USF.COMPS:FHP:1,2017-04-01T18:24:00Z,28.1530,-82.8010,-9.61,1111122 
COMPS,ioos:station:USF.COMPS:FHP:1,2017-04-01T18:30:00Z,28.1530,-82.8010,-9.605,1111122 
COMPS,ioos:station:USF.COMPS:FHP:1,2017-04-01T18:36:00Z,28.1530,-82.8010,-9.596,1111122 
COMPS,ioos:station:USF.COMPS:FHP:1,2017-04-01T18:42:00Z,28.1530,-82.8010,-9.589,1111122 
COMPS,ioos:station:USF.COMPS:FHP:1,2017-04-01T18:48:00Z,28.1530,-82.8010,-9.582,1111122 
COMPS,ioos:station:USF.COMPS:FHP:1,2017-04-01T18:54:00Z,28.1530,-82.8010,-9.575,1111122 
COMPS,ioos:station:USF.COMPS:FHP:1,2017-04-01T19:00:00Z,28.1530,-82.8010,-9.573,1111122 
COMPS,ioos:station:USF.COMPS:FHP:1,2017-04-01T19:06:00Z,28.1530,-82.8010,-9.574,1111122 
COMPS,ioos:station:USF.COMPS:FHP:1,2017-04-01T19:12:00Z,28.1530,-82.8010,-9.57,1111122 
COMPS,ioos:station:USF.COMPS:FHP:1,2017-04-01T19:18:00Z,28.1530,-82.8010,-9.58,1111122 
COMPS,ioos:station:USF.COMPS:FHP:1,2017-04-01T19:24:00Z,28.1530,-82.8010,-9.587,1111122 
COMPS,ioos:station:USF.COMPS:FHP:1,2017-04-01T19:30:00Z,28.1530,-82.8010,-9.58,1111122 
COMPS,ioos:station:USF.COMPS:FHP:1,2017-04-01T19:36:00Z,28.1530,-82.8010,-9.574,1111122 
COMPS,ioos:station:USF.COMPS:FHP:1,2017-04-01T19:42:00Z,28.1530,-82.8010,-9.573,1111122 
COMPS,ioos:station:USF.COMPS:FHP:1,2017-04-01T19:48:00Z,28.1530,-82.8010,-9.585,1111122 
COMPS,ioos:station:USF.COMPS:FHP:1,2017-04-01T19:54:00Z,28.1530,-82.8010,-9.582,1111122 
COMPS,ioos:station:USF.COMPS:FHP:1,2017-04-01T20:00:00Z,28.1530,-82.8010,-9.597,1111122 
COMPS,ioos:station:USF.COMPS:FHP:1,2017-04-01T20:06:00Z,28.1530,-82.8010,-9.595,1111122 
COMPS,ioos:station:USF.COMPS:FHP:1,2017-04-01T20:12:00Z,28.1530,-82.8010,-9.597,1111122 
COMPS,ioos:station:USF.COMPS:FHP:1,2017-04-01T20:18:00Z,28.1530,-82.8010,-9.602,1111122 
COMPS,ioos:station:USF.COMPS:FHP:1,2017-04-01T20:24:00Z,28.1530,-82.8010,-9.607,1111122 
COMPS,ioos:station:USF.COMPS:FHP:1,2017-04-01T20:30:00Z,28.1530,-82.8010,-9.621,1111122 
COMPS,ioos:station:USF.COMPS:FHP:1,2017-04-01T20:36:00Z,28.1530,-82.8010,-9.633,1111122 
COMPS,ioos:station:USF.COMPS:FHP:1,2017-04-01T20:42:00Z,28.1530,-82.8010,-9.646,1111122 
COMPS,ioos:station:USF.COMPS:FHP:1,2017-04-01T20:48:00Z,28.1530,-82.8010,-9.656,1111122 
COMPS,ioos:station:USF.COMPS:FHP:1,2017-04-01T20:54:00Z,28.1530,-82.8010,-9.663,1111122 
COMPS,ioos:station:USF.COMPS:FHP:1,2017-04-01T21:00:00Z,28.1530,-82.8010,-9.677,1111122 
COMPS,ioos:station:USF.COMPS:FHP:1,2017-04-01T21:06:00Z,28.1530,-82.8010,-9.689,1111122 
COMPS,ioos:station:USF.COMPS:FHP:1,2017-04-01T21:12:00Z,28.1530,-82.8010,-9.705,1111122 
COMPS,ioos:station:USF.COMPS:FHP:1,2017-04-01T21:18:00Z,28.1530,-82.8010,-9.711,1111122 
COMPS,ioos:station:USF.COMPS:FHP:1,2017-04-01T21:24:00Z,28.1530,-82.8010,-9.725,1111122 
COMPS,ioos:station:USF.COMPS:FHP:1,2017-04-01T21:30:00Z,28.1530,-82.8010,-9.729,1111122 
COMPS,ioos:station:USF.COMPS:FHP:1,2017-04-01T21:36:00Z,28.1530,-82.8010,-9.739,1111122 
COMPS,ioos:station:USF.COMPS:FHP:1,2017-04-01T21:42:00Z,28.1530,-82.8010,-9.752,1111122 
COMPS,ioos:station:USF.COMPS:FHP:1,2017-04-01T21:48:00Z,28.1530,-82.8010,-9.765,1111122 
COMPS,ioos:station:USF.COMPS:FHP:1,2017-04-01T21:54:00Z,28.1530,-82.8010,-9.772,1111122 
COMPS,ioos:station:USF.COMPS:FHP:1,2017-04-01T22:00:00Z,28.1530,-82.8010,-9.789,1111122 
COMPS,ioos:station:USF.COMPS:FHP:1,2017-04-01T22:06:00Z,28.1530,-82.8010,-9.796,1111122 
COMPS,ioos:station:USF.COMPS:FHP:1,2017-04-01T22:12:00Z,28.1530,-82.8010,-9.806,1111122 
COMPS,ioos:station:USF.COMPS:FHP:1,2017-04-01T22:18:00Z,28.1530,-82.8010,-9.825,1111122 
COMPS,ioos:station:USF.COMPS:FHP:1,2017-04-01T22:24:00Z,28.1530,-82.8010,-9.835,1111122 
COMPS,ioos:station:USF.COMPS:FHP:1,2017-04-01T22:30:00Z,28.1530,-82.8010,-9.862,1111122 
COMPS,ioos:station:USF.COMPS:FHP:1,2017-04-01T22:36:00Z,28.1530,-82.8010,-9.872,1111122 
COMPS,ioos:station:USF.COMPS:FHP:1,2017-04-01T22:42:00Z,28.1530,-82.8010,-9.889,1111122 
COMPS,ioos:station:USF.COMPS:FHP:1,2017-04-01T22:48:00Z,28.1530,-82.8010,-9.907,1111122 
COMPS,ioos:station:USF.COMPS:FHP:1,2017-04-01T22:54:00Z,28.1530,-82.8010,-9.932,1111122 
COMPS,ioos:station:USF.COMPS:FHP:1,2017-04-01T23:00:00Z,28.1530,-82.8010,-9.949,1111122 
COMPS,ioos:station:USF.COMPS:FHP:1,2017-04-01T23:06:00Z,28.1530,-82.8010,-9.966,1111122 
COMPS,ioos:station:USF.COMPS:FHP:1,2017-04-01T23:12:00Z,28.1530,-82.8010,-9.982,1111122 
COMPS,ioos:station:USF.COMPS:FHP:1,2017-04-02T07:48:00Z,28.1530,-82.8010,-9.996,1111122 
COMPS,ioos:station:USF.COMPS:FHP:1,2017-04-02T07:54:00Z,28.1530,-82.8010,-9.993,1111122 
COMPS,ioos:station:USF.COMPS:FHP:1,2017-04-02T08:00:00Z,28.1530,-82.8010,-9.98,1111122 
COMPS,ioos:station:USF.COMPS:FHP:1,2017-04-02T08:06:00Z,28.1530,-82.8010,-9.971,1111122 
COMPS,ioos:station:USF.COMPS:FHP:1,2017-04-02T08:12:00Z,28.1530,-82.8010,-9.971,1111122 
COMPS,ioos:station:USF.COMPS:FHP:1,2017-04-02T08:18:00Z,28.1530,-82.8010,-9.966,1111122 
COMPS,ioos:station:USF.COMPS:FHP:1,2017-04-02T08:24:00Z,28.1530,-82.8010,-9.957,1111122 
COMPS,ioos:station:USF.COMPS:FHP:1,2017-04-02T08:30:00Z,28.1530,-82.8010,-9.96,1111122 
COMPS,ioos:station:USF.COMPS:FHP:1,2017-04-02T08:36:00Z,28.1530,-82.8010,-9.953,1111122 
COMPS,ioos:station:USF.COMPS:FHP:1,2017-04-02T08:42:00Z,28.1530,-82.8010,-9.95,1111122 
COMPS,ioos:station:USF.COMPS:FHP:1,2017-04-02T08:48:00Z,28.1530,-82.8010,-9.937,1111122 
COMPS,ioos:station:USF.COMPS:FHP:1,2017-04-02T08:54:00Z,28.1530,-82.8010,-9.935,1111122 
COMPS,ioos:station:USF.COMPS:FHP:1,2017-04-02T09:00:00Z,28.1530,-82.8010,-9.923,1111122 
COMPS,ioos:station:USF.COMPS:FHP:1,2017-04-02T09:06:00Z,28.1530,-82.8010,-9.923,1111122 
COMPS,ioos:station:USF.COMPS:FHP:1,2017-04-02T09:12:00Z,28.1530,-82.8010,-9.914,1111122 
COMPS,ioos:station:USF.COMPS:FHP:1,2017-04-02T09:18:00Z,28.1530,-82.8010,-9.913,1111122 
COMPS,ioos:station:USF.COMPS:FHP:1,2017-04-02T09:24:00Z,28.1530,-82.8010,-9.91,1111122 
COMPS,ioos:station:USF.COMPS:FHP:1,2017-04-02T09:30:00Z,28.1530,-82.8010,-9.904,1111122 
COMPS,ioos:station:USF.COMPS:FHP:1,2017-04-02T09:36:00Z,28.1530,-82.8010,-9.916,1111122 
COMPS,ioos:station:USF.COMPS:FHP:1,2017-04-02T09:42:00Z,28.1530,-82.8010,-9.904,1111122 
COMPS,ioos:station:USF.COMPS:FHP:1,2017-04-02T09:48:00Z,28.1530,-82.8010,-9.915,1111122 
COMPS,ioos:station:USF.COMPS:FHP:1,2017-04-02T09:54:00Z,28.1530,-82.8010,-9.912,1111122 
COMPS,ioos:station:USF.COMPS:FHP:1,2017-04-02T10:00:00Z,28.1530,-82.8010,-9.919,1111122 
COMPS,ioos:station:USF.COMPS:FHP:1,2017-04-02T10:06:00Z,28.1530,-82.8010,-9.933,1111122 
COMPS,ioos:station:USF.COMPS:FHP:1,2017-04-02T10:12:00Z,28.1530,-82.8010,-9.936,1111122 
COMPS,ioos:station:USF.COMPS:FHP:1,2017-04-02T10:18:00Z,28.1530,-82.8010,-9.942,1111122 
COMPS,ioos:station:USF.COMPS:FHP:1,2017-04-02T10:24:00Z,28.1530,-82.8010,-9.948,1111122 
COMPS,ioos:station:USF.COMPS:FHP:1,2017-04-02T10:30:00Z,28.1530,-82.8010,-9.946,1111122 
COMPS,ioos:station:USF.COMPS:FHP:1,2017-04-02T10:36:00Z,28.1530,-82.8010,-9.95,1111122 
COMPS,ioos:station:USF.COMPS:FHP:1,2017-04-02T10:42:00Z,28.1530,-82.8010,-9.957,1111122 
COMPS,ioos:station:USF.COMPS:FHP:1,2017-04-02T10:48:00Z,28.1530,-82.8010,-9.963,1111122 
COMPS,ioos:station:USF.COMPS:FHP:1,2017-04-02T10:54:00Z,28.1530,-82.8010,-9.974,1111122 
COMPS,ioos:station:USF.COMPS:FHP:1,2017-04-02T11:00:00Z,28.1530,-82.8010,-9.981,1111122 
COMPS,ioos:station:USF.COMPS:FHP:1,2017-04-02T11:06:00Z,28.1530,-82.8010,-9.984,1111122 
COMPS,ioos:station:USF.COMPS:FHP:1,2017-04-02T11:12:00Z,28.1530,-82.8010,-9.993,1111122 
COMPS,ioos:station:USF.COMPS:FHP:1,2017-04-02T15:48:00Z,28.1530,-82.8010,-9.984,1111122 
COMPS,ioos:station:USF.COMPS:FHP:1,2017-04-02T15:54:00Z,28.1530,-82.8010,-9.971,1111122 
COMPS,ioos:station:USF.COMPS:FHP:1,2017-04-02T16:00:00Z,28.1530,-82.8010,-9.957,1111122 
COMPS,ioos:station:USF.COMPS:FHP:1,2017-04-02T16:06:00Z,28.1530,-82.8010,-9.949,1111122 
COMPS,ioos:station:USF.COMPS:FHP:1,2017-04-02T16:12:00Z,28.1530,-82.8010,-9.939,1111122 
COMPS,ioos:station:USF.COMPS:FHP:1,2017-04-02T16:18:00Z,28.1530,-82.8010,-9.936,1111122 
COMPS,ioos:station:USF.COMPS:FHP:1,2017-04-02T16:24:00Z,28.1530,-82.8010,-9.918,1111122 
COMPS,ioos:station:USF.COMPS:FHP:1,2017-04-02T16:30:00Z,28.1530,-82.8010,-9.912,1111122 
COMPS,ioos:station:USF.COMPS:FHP:1,2017-04-02T16:36:00Z,28.1530,-82.8010,-9.9,1111122 
COMPS,ioos:station:USF.COMPS:FHP:1,2017-04-02T16:42:00Z,28.1530,-82.8010,-9.886,1111122 
COMPS,ioos:station:USF.COMPS:FHP:1,2017-04-02T16:48:00Z,28.1530,-82.8010,-9.877,1111122 
COMPS,ioos:station:USF.COMPS:FHP:1,2017-04-02T16:54:00Z,28.1530,-82.8010,-9.868,1111122 
COMPS,ioos:station:USF.COMPS:FHP:1,2017-04-02T17:00:00Z,28.1530,-82.8010,-9.854,1111122 
COMPS,ioos:station:USF.COMPS:FHP:1,2017-04-02T17:06:00Z,28.1530,-82.8010,-9.844,1111122 
COMPS,ioos:station:USF.COMPS:FHP:1,2017-04-02T17:12:00Z,28.1530,-82.8010,-9.824,1111122 
COMPS,ioos:station:USF.COMPS:FHP:1,2017-04-02T17:18:00Z,28.1530,-82.8010,-9.816,1111122 
COMPS,ioos:station:USF.COMPS:FHP:1,2017-04-02T17:24:00Z,28.1530,-82.8010,-9.8,1111122 
COMPS,ioos:station:USF.COMPS:FHP:1,2017-04-02T17:30:00Z,28.1530,-82.8010,-9.799,1111122 
COMPS,ioos:station:USF.COMPS:FHP:1,2017-04-02T17:36:00Z,28.1530,-82.8010,-9.786,1111122 
COMPS,ioos:station:USF.COMPS:FHP:1,2017-04-02T17:42:00Z,28.1530,-82.8010,-9.771,1111122 
COMPS,ioos:station:USF.COMPS:FHP:1,2017-04-02T17:48:00Z,28.1530,-82.8010,-9.756,1111122 
COMPS,ioos:station:USF.COMPS:FHP:1,2017-04-02T17:54:00Z,28.1530,-82.8010,-9.735,1111122 
COMPS,ioos:station:USF.COMPS:FHP:1,2017-04-02T18:00:00Z,28.1530,-82.8010,-9.726,1111122 
COMPS,ioos:station:USF.COMPS:FHP:1,2017-04-02T18:06:00Z,28.1530,-82.8010,-9.714,1111122 
COMPS,ioos:station:USF.COMPS:FHP:1,2017-04-02T18:12:00Z,28.1530,-82.8010,-9.7,1111122 
COMPS,ioos:station:USF.COMPS:FHP:1,2017-04-02T18:18:00Z,28.1530,-82.8010,-9.689,1111122 
COMPS,ioos:station:USF.COMPS:FHP:1,2017-04-02T18:24:00Z,28.1530,-82.8010,-9.669,1111122 
COMPS,ioos:station:USF.COMPS:FHP:1,2017-04-02T18:30:00Z,28.1530,-82.8010,-9.659,1111122 
COMPS,ioos:station:USF.COMPS:FHP:1,2017-04-02T18:36:00Z,28.1530,-82.8010,-9.654,1111122 
COMPS,ioos:station:USF.COMPS:FHP:1,2017-04-02T18:42:00Z,28.1530,-82.8010,-9.649,1111122 
COMPS,ioos:station:USF.COMPS:FHP:1,2017-04-02T18:48:00Z,28.1530,-82.8010,-9.644,1111122 
COMPS,ioos:station:USF.COMPS:FHP:1,2017-04-02T18:54:00Z,28.1530,-82.8010,-9.642,1111122 
COMPS,ioos:station:USF.COMPS:FHP:1,2017-04-02T19:00:00Z,28.1530,-82.8010,-9.639,1111122 
COMPS,ioos:station:USF.COMPS:FHP:1,2017-04-02T19:06:00Z,28.1530,-82.8010,-9.631,1111122 
COMPS,ioos:station:USF.COMPS:FHP:1,2017-04-02T19:12:00Z,28.1530,-82.8010,-9.63,1111122 
COMPS,ioos:station:USF.COMPS:FHP:1,2017-04-02T19:18:00Z,28.1530,-82.8010,-9.628,1111122 
COMPS,ioos:station:USF.COMPS:FHP:1,2017-04-02T19:24:00Z,28.1530,-82.8010,-9.635,1111122 
COMPS,ioos:station:USF.COMPS:FHP:1,2017-04-02T19:30:00Z,28.1530,-82.8010,-9.636,1111122 
COMPS,ioos:station:USF.COMPS:FHP:1,2017-04-02T19:36:00Z,28.1530,-82.8010,-9.633,1111122 
COMPS,ioos:station:USF.COMPS:FHP:1,2017-04-02T19:42:00Z,28.1530,-82.8010,-9.628,1111122 
COMPS,ioos:station:USF.COMPS:FHP:1,2017-04-02T19:48:00Z,28.1530,-82.8010,-9.616,1111122 
COMPS,ioos:station:USF.COMPS:FHP:1,2017-04-02T19:54:00Z,28.1530,-82.8010,-9.616,1111122 
COMPS,ioos:station:USF.COMPS:FHP:1,2017-04-02T20:00:00Z,28.1530,-82.8010,-9.614,1111122 
COMPS,ioos:station:USF.COMPS:FHP:1,2017-04-02T20:06:00Z,28.1530,-82.8010,-9.618,1111122 
COMPS,ioos:station:USF.COMPS:FHP:1,2017-04-02T20:12:00Z,28.1530,-82.8010,-9.6,1111122 
COMPS,ioos:station:USF.COMPS:FHP:1,2017-04-02T20:18:00Z,28.1530,-82.8010,-9.594,1111122 
COMPS,ioos:station:USF.COMPS:FHP:1,2017-04-02T20:24:00Z,28.1530,-82.8010,-9.58,1111122 
COMPS,ioos:station:USF.COMPS:FHP:1,2017-04-02T20:30:00Z,28.1530,-82.8010,-9.582,1111122 
COMPS,ioos:station:USF.COMPS:FHP:1,2017-04-02T20:36:00Z,28.1530,-82.8010,-9.577,1111122 
COMPS,ioos:station:USF.COMPS:FHP:1,2017-04-02T20:42:00Z,28.1530,-82.8010,-9.588,1111122 
COMPS,ioos:station:USF.COMPS:FHP:1,2017-04-02T20:48:00Z,28.1530,-82.8010,-9.588,1111122 
COMPS,ioos:station:USF.COMPS:FHP:1,2017-04-02T20:54:00Z,28.1530,-82.8010,-9.593,1111122 
COMPS,ioos:station:USF.COMPS:FHP:1,2017-04-02T21:00:00Z,28.1530,-82.8010,-9.588,1111122 
COMPS,ioos:station:USF.COMPS:FHP:1,2017-04-02T21:06:00Z,28.1530,-82.8010,-9.601,1111122 
COMPS,ioos:station:USF.COMPS:FHP:1,2017-04-02T21:12:00Z,28.1530,-82.8010,-9.613,1111122 
COMPS,ioos:station:USF.COMPS:FHP:1,2017-04-02T21:18:00Z,28.1530,-82.8010,-9.632,1111122 
COMPS,ioos:station:USF.COMPS:FHP:1,2017-04-02T21:24:00Z,28.1530,-82.8010,-9.632,1111122 
COMPS,ioos:station:USF.COMPS:FHP:1,2017-04-02T21:30:00Z,28.1530,-82.8010,-9.642,1111122 
COMPS,ioos:station:USF.COMPS:FHP:1,2017-04-02T21:36:00Z,28.1530,-82.8010,-9.635,1111122 
COMPS,ioos:station:USF.COMPS:FHP:1,2017-04-02T21:42:00Z,28.1530,-82.8010,-9.636,1111122 
COMPS,ioos:station:USF.COMPS:FHP:1,2017-04-02T21:48:00Z,28.1530,-82.8010,-9.644,1111122 
COMPS,ioos:station:USF.COMPS:FHP:1,2017-04-02T21:54:00Z,28.1530,-82.8010,-9.658,1111122 
COMPS,ioos:station:USF.COMPS:FHP:1,2017-04-02T22:00:00Z,28.1530,-82.8010,-9.672,1111122 
COMPS,ioos:station:USF.COMPS:FHP:1,2017-04-02T22:06:00Z,28.1530,-82.8010,-9.686,1111122 
COMPS,ioos:station:USF.COMPS:FHP:1,2017-04-02T22:12:00Z,28.1530,-82.8010,-9.689,1111122 
COMPS,ioos:station:USF.COMPS:FHP:1,2017-04-02T22:18:00Z,28.1530,-82.8010,-9.697,1111122 
COMPS,ioos:station:USF.COMPS:FHP:1,2017-04-02T22:24:00Z,28.1530,-82.8010,-9.703,1111122 
COMPS,ioos:station:USF.COMPS:FHP:1,2017-04-02T22:30:00Z,28.1530,-82.8010,-9.717,1111122 
COMPS,ioos:station:USF.COMPS:FHP:1,2017-04-02T22:36:00Z,28.1530,-82.8010,-9.727,1111122 
COMPS,ioos:station:USF.COMPS:FHP:1,2017-04-02T22:42:00Z,28.1530,-82.8010,-9.741,1111122 
COMPS,ioos:station:USF.COMPS:FHP:1,2017-04-02T22:48:00Z,28.1530,-82.8010,-9.747,1111122 
COMPS,ioos:station:USF.COMPS:FHP:1,2017-04-02T22:54:00Z,28.1530,-82.8010,-9.758,1111122 
COMPS,ioos:station:USF.COMPS:FHP:1,2017-04-02T23:00:00Z,28.1530,-82.8010,-9.764,1111122 
COMPS,ioos:station:USF.COMPS:FHP:1,2017-04-02T23:06:00Z,28.1530,-82.8010,-9.78,1111122 
COMPS,ioos:station:USF.COMPS:FHP:1,2017-04-02T23:12:00Z,28.1530,-82.8010,-9.8,1111122 
COMPS,ioos:station:USF.COMPS:FHP:1,2017-04-02T23:18:00Z,28.1530,-82.8010,-9.819,1111122 
COMPS,ioos:station:USF.COMPS:FHP:1,2017-04-02T23:30:00Z,28.1530,-82.8010,-9.843,1111122 
COMPS,ioos:station:USF.COMPS:FHP:1,2017-04-02T23:42:00Z,28.1530,-82.8010,-9.867,1111122 
COMPS,ioos:station:USF.COMPS:FHP:1,2017-04-02T23:48:00Z,28.1530,-82.8010,-9.889,1111122 
COMPS,ioos:station:USF.COMPS:FHP:1,2017-04-02T23:54:00Z,28.1530,-82.8010,-9.896,1111122 
COMPS,ioos:station:USF.COMPS:FHP:1,2017-04-03T00:00:00Z,28.1530,-82.8010,-9.917,1111122 
COMPS,ioos:station:USF.COMPS:FHP:1,2017-04-03T00:06:00Z,28.1530,-82.8010,-9.932,1111122 
COMPS,ioos:station:USF.COMPS:FHP:1,2017-04-03T00:12:00Z,28.1530,-82.8010,-9.945,1111122 
COMPS,ioos:station:USF.COMPS:FHP:1,2017-04-03T00:18:00Z,28.1530,-82.8010,-9.966,1111122 
COMPS,ioos:station:USF.COMPS:FHP:1,2017-04-03T00:24:00Z,28.1530,-82.8010,-9.976,1111122 
COMPS,ioos:station:USF.COMPS:FHP:1,2017-04-03T08:30:00Z,28.1530,-82.8010,-9.999,1111122 
COMPS,ioos:station:USF.COMPS:FHP:1,2017-04-03T08:36:00Z,28.1530,-82.8010,-9.985,1111122 
COMPS,ioos:station:USF.COMPS:FHP:1,2017-04-03T08:42:00Z,28.1530,-82.8010,-9.974,1111122 
COMPS,ioos:station:USF.COMPS:FHP:1,2017-04-03T08:48:00Z,28.1530,-82.8010,-9.964,1111122 
COMPS,ioos:station:USF.COMPS:FHP:1,2017-04-03T08:54:00Z,28.1530,-82.8010,-9.958,1111122 
COMPS,ioos:station:USF.COMPS:FHP:1,2017-04-03T09:00:00Z,28.1530,-82.8010,-9.947,1111122 